[[{"header":{"parameterUnit":"m.s-1","parameterCategory":2,"la1":30.2991,"la2":30.254,"lo1":-89.0895,"lo2":-89.0444,"dy":0.0017,"dx":0.0017,"nx":28,"ny":28,"refTime":"2025-03-05T03:00:00:Z","depth":"0","parameterNumber":2,"parameterNumberName":"U-component_of_CURRENTS"},"data":[0,0,0,0,0,0,0,0,0,0,0,0,0,0,0,0,0,0,0,0,0,0,0,0,0,0,0,0,0,0,0,0,0,0,0,0,0,0,0,0,0,0,0,0,0,0,0,0,0,0,0,0,0,0,0,0,0,0,0.1679,0.1679,0,0.1645,0.1645,0.1644,0.1596,0.1595,0.1594,0.1593,0.1542,0.1542,0.1541,0,0,0,0,0,0,0,0,0,0,0,0,0,0.1666,0.1667,0.1679,0.1679,0.1678,0.1645,0.1645,0.1644,0.1596,0.1595,0.1594,0.1593,0.1542,0.1542,0.1541,0,0,0,0,0,0,0,0,0,0,0,0,0,0.1656,0.1667,0.1679,0.165,0.1648,0.1645,0.1645,0.1644,0.1596,0.1595,0.1594,0.1593,0.1543,0.1542,0.1541,0.1559,0,0,0.1538,0.1538,0,0,0,0,0,0,0,0,0.1656,0.1656,0.1655,0.1652,0.1649,0.1624,0.1621,0.1615,0.1596,0.1615,0.1593,0.1592,0.1569,0.1566,0.1562,0.1556,0.1554,0.1538,0.1537,0.1537,0.1537,0,0,0,0,0,0,0,0.1657,0.1657,0.1665,0.1655,0.1651,0.1627,0.1625,0.162,0.1599,0.1613,0.161,0.1607,0.1567,0.1563,0.156,0.1554,0.1538,0.1537,0.1537,0.1536,0.1546,0.1547,0,0,0,0,0,0,0.1666,0.1658,0.1666,0.1664,0.165,0.1628,0.1626,0.1633,0.1599,0.1593,0.1608,0.1605,0.1565,0.1561,0.1558,0.1593,0.1537,0.1536,0.1536,0.1545,0.1546,0.1547,0,0,0,0,0,0,0.1666,0.1667,0.1667,0.166,0.1658,0.163,0.1638,0.1633,0.1612,0.1595,0.1588,0.1592,0.1564,0.156,0.1539,0.1589,0.1536,0.1535,0.1544,0.1545,0.1546,0.1652,0,0,0,0,0,0,0.1666,0.1668,0.1659,0.1661,0.1659,0.1647,0.1639,0.1633,0.1614,0.1609,0.158,0.1574,0.1563,0.154,0.1538,0.1587,0.1534,0.1543,0.1545,0.1546,0.1647,0.1656,0.1664,0,0,0,0,0,0.1666,0.1644,0.1659,0.1659,0.1654,0.1647,0.1642,0.1618,0.1614,0.1598,0.1584,0.1574,0.1549,0.154,0.1537,0.1587,0.1542,0.1544,0.1546,0.1643,0.1654,0.1664,0,0,0,0,0,0,0.1625,0.1639,0.1654,0.1637,0.1641,0.1638,0.1615,0.1615,0.1593,0.1593,0.1574,0.1568,0.1587,0.1554,0.1544,0.1591,0.1549,0.1551,0.1624,0.1634,0.1643,0.1662,0.1533,0,0,0,0,0,0.1621,0.1614,0.1631,0.162,0.1622,0.1625,0.1615,0.1616,0.1606,0.1594,0.1588,0.1581,0.1596,0.1583,0.159,0.1595,0.1605,0.1626,0.1635,0.1642,0.1654,0.1722,0.1739,0.1553,0.1553,0.1553,0,0,0.1598,0.161,0.1601,0.1611,0.1614,0.1641,0.1614,0.1609,0.1646,0.1595,0.1625,0.1618,0.1606,0.1633,0.1637,0.1605,0.1697,0.1644,0.1651,0.1659,0.1726,0.1745,0.1761,0.1554,0.1554,0.1554,0,0,0.1584,0.1571,0.1581,0.1594,0.1613,0.1624,0.1625,0.164,0.165,0.1674,0.1672,0.1681,0.1679,0.1696,0.1702,0.1751,0.1755,0.1752,0.1798,0.1865,0.1882,0.1897,0.1928,0.1945,0.174,0.174,0.174,0,0.1593,0.1594,0.1577,0.1612,0.163,0.1626,0.1666,0.1682,0.1694,0.1719,0.1691,0.1735,0.1723,0.1778,0.1797,0.1779,0.1799,0.1766,0.1881,0.1895,0.1909,0.1938,0.1955,0.1745,0.1745,0.1744,0.1744,0,0.159,0.1611,0.1613,0.1672,0.1683,0.1702,0.1744,0.1765,0.1781,0.181,0.1861,0.1845,0.1864,0.1873,0.1849,0.1941,0.192,0.1903,0.1864,0.1935,0.1959,0.1976,0.1753,0.1751,0.175,0.1748,0,0,0.1603,0.1623,0.1628,0.1676,0.1722,0.1741,0.1804,0.1863,0.1908,0.1929,0.1996,0.2019,0.2004,0.2007,0.1989,0.203,0.2142,0.2004,0.2005,0.2051,0.2276,0.2368,0.2394,0.2154,0.2157,0.216,0.2253,0,0.1638,0.1701,0.1699,0.1776,0.1821,0.1846,0.1902,0.1955,0.1986,0.2044,0.2062,0.2106,0.2059,0.2066,0.2111,0.2141,0.219,0.2117,0.2185,0.2186,0.2276,0.2419,0.2588,0.2697,0.2269,0.2272,0.2273,0,0.1658,0.1699,0.1771,0.1852,0.1871,0.1917,0.1999,0.2052,0.2127,0.2146,0.2187,0.2198,0.2263,0.2212,0.2309,0.2265,0.2285,0.2298,0.2301,0.2366,0.2312,0.2555,0.2742,0.2775,0.2298,0.2296,0.2295,0,0.1677,0.1759,0.1815,0.1843,0.1924,0.1969,0.2016,0.2085,0.2138,0.2215,0.2249,0.2314,0.235,0.2403,0.2436,0.2381,0.2555,0.2476,0.2574,0.2577,0.2725,0.2737,0.2972,0.257,0.257,0.2569,0.2569,0,0.1721,0.1772,0.1828,0.1862,0.1935,0.1993,0.2074,0.2115,0.2199,0.226,0.2299,0.2362,0.2405,0.2498,0.2508,0.2627,0.2619,0.2632,0.2641,0.2763,0.2777,0.281,0.2745,0.2573,0.2572,0.2571,0.2571,0,0.1737,0.177,0.1843,0.1922,0.1946,0.2001,0.2099,0.2158,0.2221,0.2305,0.2336,0.2436,0.2572,0.2636,0.2736,0.2731,0.2803,0.2854,0.2985,0.3009,0.3106,0.3038,0.2889,0.2849,0.2972,0.2975,0.2978,0,0.1751,0.1785,0.1862,0.1891,0.1927,0.2008,0.206,0.2153,0.2208,0.2345,0.2389,0.256,0.2716,0.2932,0.3016,0.3132,0.2962,0.3262,0.3193,0.32,0.3128,0.2757,0.2705,0.341,0.3416,0.3421,0.3425,0,0.1771,0.1788,0.183,0.1879,0.1938,0.2005,0.2086,0.2139,0.2243,0.2371,0.2552,0.272,0.2976,0.3248,0.3397,0.3433,0.3207,0.3365,0.3373,0.3521,0.3133,0.3072,0.3206,0.347,0.3466,0.3462,0.346,0.3458,0.1765,0.1781,0.1813,0.1863,0.1919,0.1975,0.2044,0.2143,0.2289,0.2485,0.2665,0.2984,0.3394,0.3695,0.3678,0.3833,0.3501,0.383,0.3751,0.3369,0.3338,0.3559,0.3828,0.3825,0.3823,0.3822,0.382,0,0.1755,0.1755,0.1792,0.1841,0.1874,0.1925,0.2038,0.2137,0.231,0.2603,0.2868,0.3441,0.3824,0.4033,0.4327,0.4283,0.3948,0.4196,0.3789,0.3725,0.4023,0.4068,0.4405,0.4405,0.4405,0.4405,0.4405,0.4405,0.1729,0.174,0.1753,0.1773,0.1808,0.1923,0.1992,0.2166,0.2411,0.2843,0.3203,0.3477,0.3941,0.4412,0.4605,0.4523,0.4189,0.4044,0.3835,0.4209,0.4168,0.4128,0.4162,0.4514,0.4514,0.3494,0.3488,0.3483]},{"header":{"parameterUnit":"m.s-1","parameterCategory":2,"la1":30.2991,"la2":30.254,"lo1":-89.0895,"lo2":-89.0444,"dy":0.0017,"dx":0.0017,"nx":28,"ny":28,"refTime":"2025-03-05T03:00:00:Z","depth":"0","parameterNumber":3,"parameterNumberName":"V-component_of_CURRENTS"},"data":[0,0,0,0,0,0,0,0,0,0,0,0,0,0,0,0,0,0,0,0,0,0,0,0,0,0,0,0,0,0,0,0,0,0,0,0,0,0,0,0,0,0,0,0,0,0,0,0,0,0,0,0,0,0,0,0,0,0,0.0099,0.0099,0,0.0101,0.01,0.01,0.0082,0.0082,0.0082,0.0082,0.0021,0.0019,0.0018,0,0,0,0,0,0,0,0,0,0,0,0,0,0.0009,0.0011,0.0099,0.01,0.01,0.0101,0.01,0.01,0.0082,0.0082,0.0082,0.0082,0.0021,0.0019,0.0017,0,0,0,0,0,0,0,0,0,0,0,0,0,0.0029,0.0012,0.0099,0.0095,0.0095,0.0101,0.01,0.01,0.0082,0.0082,0.0082,0.0082,0.0022,0.0019,0.0017,0.0003,0,0,0.001,0.0009,0,0,0,0,0,0,0,0,0.0028,0.0031,0.0095,0.0095,0.0095,0.0096,0.0047,0.0066,0.0082,0.0081,0.0082,0.0082,0.0043,0.0039,0.0033,0.0,-0.0003,0.001,0.0008,0.0007,0.0006,0,0,0,0,0,0,0,0.0026,0.0031,0.0094,0.0096,0.0096,0.0069,0.0072,0.005,0.0057,0.0081,0.0081,0.009,0.0042,0.0035,0.0031,-0.0003,0.001,0.0007,0.0006,0.0005,-0.0071,-0.0072,0,0,0,0,0,0,0.0041,0.003,0.0094,0.0095,0.0067,0.0072,0.0074,0.0091,0.0059,0.0056,0.009,0.0089,0.004,0.0034,0.0029,0.0012,0.0007,0.0005,0.0003,-0.0071,-0.0071,-0.0072,0,0,0,0,0,0,0.0039,0.0047,0.0094,0.0066,0.0071,0.0074,0.0093,0.0091,0.0088,0.0067,0.0062,0.0089,0.0039,0.0032,0.0001,0.0009,0.0004,0.0002,-0.007,-0.0071,-0.0072,-0.0024,0,0,0,0,0,0,0.0037,0.0046,0.0068,0.0067,0.0073,0.0099,0.0093,0.0092,0.0096,0.0095,0.0064,0.0059,0.0039,0.0004,-0.0002,0.0006,-0.0,-0.0069,-0.007,-0.0071,-0.0025,-0.0023,-0.0022,0,0,0,0,0,0.0033,0.0078,0.0069,0.0078,0.0102,0.0099,0.0099,0.0097,0.0096,0.0093,0.0066,0.006,-0.0007,0.0002,-0.0005,0.0002,-0.0069,-0.007,-0.0071,-0.0025,-0.0023,-0.0022,0,0,0,0,0,0,0.0046,0.008,0.0071,0.0121,0.0106,0.0098,0.0114,0.01,0.0078,0.0074,0.005,0.0041,0.0017,-0.0003,0.0007,-0.0026,-0.0038,-0.004,-0.0001,0.0001,0.0003,0.0021,-0.0002,0,0,0,0,0,0.006,0.0103,0.01,0.0133,0.0134,0.0118,0.0121,0.0105,0.0088,0.0079,0.006,0.0032,0.0006,-0.0006,-0.0035,-0.0052,-0.0066,-0.0054,-0.0052,-0.005,-0.0042,-0.0091,-0.0093,-0.0076,-0.0076,-0.0076,0,0,0.0066,0.0098,0.0115,0.0139,0.0133,0.0136,0.0118,0.0117,0.0115,0.0074,0.0071,0.0036,-0.0,-0.0022,-0.0033,-0.0035,-0.0055,-0.0052,-0.005,-0.0043,-0.0093,-0.0094,-0.0095,-0.0077,-0.0077,-0.0077,0,0,0.0102,0.0132,0.0168,0.0166,0.0167,0.0155,0.0155,0.0137,0.0128,0.0104,0.0077,0.004,0.0011,-0.0017,-0.0033,-0.0043,-0.0049,-0.0045,-0.0015,-0.0063,-0.0064,-0.0066,-0.0047,-0.0048,-0.0039,-0.0039,-0.0039,0,0.009,0.0159,0.017,0.0197,0.021,0.0167,0.0182,0.0162,0.0132,0.0129,0.0106,0.0048,0.0011,-0.0011,-0.0015,-0.0038,-0.0042,-0.0015,-0.0059,-0.0061,-0.0064,-0.0045,-0.0046,-0.0037,-0.0037,-0.0038,-0.0038,0,0.0151,0.0192,0.0215,0.0242,0.0248,0.0253,0.0231,0.0222,0.0202,0.0176,0.0142,0.0077,0.0047,0.0026,0.0003,-0.0023,-0.001,-0.0053,-0.0058,-0.0062,-0.0042,-0.0043,-0.0034,-0.0035,-0.0036,-0.0036,0,0,0.015,0.0234,0.024,0.0274,0.0275,0.029,0.0288,0.0281,0.0291,0.0227,0.0227,0.0156,0.0115,0.0092,0.0049,0.0005,-0.0011,-0.002,-0.0024,0.0012,-0.0061,-0.0079,-0.0082,-0.0061,-0.0063,-0.0063,-0.0025,0,0.0179,0.0255,0.0289,0.0343,0.0379,0.0364,0.0376,0.0358,0.033,0.0313,0.0227,0.0201,0.0142,0.0126,0.0068,0.0002,-0.002,-0.0014,-0.0074,-0.0075,-0.0081,-0.0088,-0.0015,0.0021,-0.0027,-0.0027,-0.0028,0,0.0227,0.0287,0.0348,0.0428,0.044,0.046,0.0493,0.0491,0.0446,0.0419,0.036,0.0297,0.0229,0.0164,0.0061,0.0072,0.0019,-0.0037,-0.0038,-0.0075,-0.0098,0.0007,0.0019,-0.0145,-0.0031,-0.003,-0.003,0,0.0252,0.0334,0.0398,0.0418,0.048,0.0516,0.0537,0.0525,0.0542,0.0484,0.0479,0.0376,0.0332,0.0224,0.011,0.0091,-0.0001,-0.0046,-0.01,-0.0098,-0.006,-0.0055,-0.0207,-0.0114,-0.0114,-0.0114,-0.0114,0,0.0289,0.0344,0.0423,0.0461,0.0554,0.0567,0.0637,0.0635,0.0623,0.0644,0.0536,0.0528,0.034,0.0262,0.0147,0.0029,0.0031,-0.0085,-0.0105,-0.0038,-0.0032,-0.0194,-0.029,-0.0112,-0.0113,-0.0113,-0.0113,0,0.0306,0.0346,0.0444,0.0535,0.0572,0.0638,0.0728,0.0775,0.0742,0.0761,0.0749,0.0651,0.0559,0.0397,0.0234,0.0097,-0.0107,-0.0065,0.0058,0.0049,-0.0183,-0.0277,-0.0398,-0.0517,-0.0117,-0.0117,-0.0118,0,0.0308,0.0359,0.0504,0.0581,0.0634,0.0733,0.0807,0.083,0.0873,0.0848,0.0863,0.0782,0.0766,0.0533,0.0284,0.0104,-0.0074,0.0005,-0.0053,-0.0186,-0.0305,-0.0349,-0.0445,0.0051,0.0052,0.0052,0.0053,0,0.0337,0.0395,0.0497,0.0654,0.0767,0.0894,0.099,0.104,0.105,0.1082,0.1122,0.1116,0.0892,0.0759,0.0452,0.0261,-0.0109,0.0014,-0.0169,-0.0229,-0.0239,-0.0365,0.0055,0.0061,0.006,0.0059,0.0059,0.0059,0.0368,0.0458,0.0602,0.076,0.0898,0.1049,0.1152,0.1243,0.1346,0.1456,0.1411,0.1582,0.1305,0.0912,0.0506,-0.0036,-0.0058,-0.0146,-0.0248,-0.028,-0.0417,0.0035,0.0023,0.0022,0.0021,0.002,0.002,0,0.0416,0.0542,0.0695,0.0918,0.1104,0.1133,0.1283,0.1416,0.1569,0.1787,0.1916,0.2151,0.1684,0.1165,0.0429,-0.0111,-0.037,-0.0409,-0.0458,-0.0554,-0.0168,-0.0188,-0.0195,-0.0194,-0.0194,-0.0194,-0.0194,-0.0194,0.0467,0.0627,0.0733,0.1067,0.1218,0.1435,0.1523,0.1733,0.1954,0.2423,0.2791,0.3005,0.2875,0.1297,0.0157,-0.0262,-0.0697,-0.077,-0.1011,-0.074,-0.0723,-0.0707,-0.0751,-0.0875,-0.0876,-0.1315,-0.132,-0.1323]}],[{"header":{"parameterUnit":"m.s-1","parameterCategory":2,"la1":30.2991,"la2":30.254,"lo1":-89.0895,"lo2":-89.0444,"dy":0.0017,"dx":0.0017,"nx":28,"ny":28,"refTime":"2025-03-05T03:00:00:Z","depth":"2","parameterNumber":2,"parameterNumberName":"U-component_of_CURRENTS"},"data":[0,0,0,0,0,0,0,0,0,0,0,0,0,0,0,0,0,0,0,0,0,0,0,0,0,0,0,0,0,0,0,0,0,0,0,0,0,0,0,0,0,0,0,0,0,0,0,0,0,0,0,0,0,0,0,0,0,0,0.1608,0.1608,0,0.1587,0.1587,0.1586,0.154,0.1539,0.1538,0.1537,0.1487,0.1487,0.1486,0,0,0,0,0,0,0,0,0,0,0,0,0,0.1603,0.1603,0.1608,0.1608,0.1607,0.1587,0.1587,0.1586,0.154,0.1539,0.1538,0.1537,0.1488,0.1487,0.1486,0,0,0,0,0,0,0,0,0,0,0,0,0,0.1594,0.1603,0.1608,0.1583,0.1581,0.1587,0.1587,0.1586,0.154,0.1539,0.1538,0.1537,0.1488,0.1487,0.1486,0.1504,0,0,0.1483,0.1483,0,0,0,0,0,0,0,0,0.1595,0.1594,0.1587,0.1585,0.1583,0.1566,0.1567,0.1558,0.154,0.1554,0.1537,0.1536,0.1513,0.151,0.1506,0.1501,0.1499,0.1483,0.1483,0.1482,0.1482,0,0,0,0,0,0,0,0.1595,0.1595,0.1597,0.1587,0.1584,0.1572,0.157,0.1565,0.1538,0.1552,0.1549,0.1551,0.1511,0.1508,0.1505,0.1498,0.1483,0.1482,0.1482,0.1481,0.1493,0.1494,0,0,0,0,0,0,0.1604,0.1596,0.1598,0.1597,0.1588,0.1574,0.157,0.1571,0.1539,0.1533,0.1552,0.1549,0.151,0.1506,0.1503,0.1537,0.1482,0.1481,0.1481,0.1492,0.1493,0.1494,0,0,0,0,0,0,0.1604,0.1604,0.1599,0.1597,0.1596,0.1575,0.1576,0.1571,0.1549,0.1539,0.1532,0.1533,0.1509,0.1504,0.1485,0.1534,0.1481,0.148,0.1491,0.1493,0.1494,0.1596,0,0,0,0,0,0,0.1603,0.1604,0.1592,0.1598,0.1596,0.158,0.1577,0.1572,0.1554,0.1549,0.1521,0.1516,0.1507,0.1486,0.1484,0.1532,0.1479,0.149,0.1492,0.1493,0.1592,0.1601,0.1609,0,0,0,0,0,0.1603,0.1581,0.1592,0.1591,0.1586,0.1579,0.1576,0.1557,0.1554,0.1534,0.1525,0.1516,0.1495,0.1485,0.1483,0.1532,0.1489,0.1491,0.1493,0.1588,0.1599,0.1609,0,0,0,0,0,0,0.1563,0.1575,0.1586,0.1567,0.1569,0.1571,0.1553,0.1551,0.153,0.1534,0.1516,0.151,0.153,0.1498,0.1488,0.1538,0.1496,0.1497,0.1569,0.1579,0.1588,0.1606,0.1479,0,0,0,0,0,0.1557,0.1549,0.1563,0.1549,0.1552,0.1557,0.1548,0.1551,0.1543,0.1532,0.1527,0.1524,0.154,0.1528,0.1537,0.1542,0.1553,0.1573,0.1581,0.1589,0.16,0.167,0.1687,0.1501,0.1501,0.1501,0,0,0.1535,0.1546,0.1537,0.1541,0.1546,0.1571,0.1546,0.1545,0.1582,0.1533,0.1566,0.156,0.155,0.1579,0.1583,0.1552,0.1644,0.1591,0.1598,0.1606,0.1674,0.1693,0.1709,0.1502,0.1502,0.1502,0,0,0.1525,0.1506,0.1516,0.1527,0.1548,0.1559,0.1559,0.1576,0.1588,0.1613,0.1614,0.1624,0.1623,0.1642,0.1648,0.1698,0.1701,0.1698,0.1744,0.1812,0.1829,0.1844,0.1876,0.1893,0.1687,0.1687,0.1687,0,0.1536,0.153,0.1512,0.1546,0.1567,0.156,0.16,0.1616,0.1631,0.1657,0.1632,0.1679,0.1668,0.1722,0.1743,0.1725,0.1746,0.1711,0.1828,0.1843,0.1856,0.1885,0.1903,0.1692,0.1691,0.1691,0.169,0,0.1533,0.1551,0.1554,0.1609,0.1619,0.164,0.1681,0.1702,0.172,0.1749,0.1802,0.179,0.181,0.1819,0.1795,0.1887,0.1865,0.1849,0.1811,0.1882,0.1906,0.1923,0.1699,0.1698,0.1696,0.1695,0,0,0.1549,0.1565,0.157,0.1616,0.1661,0.1679,0.1743,0.1798,0.1844,0.1868,0.1934,0.196,0.1947,0.1951,0.1933,0.1976,0.2088,0.195,0.1951,0.1996,0.2223,0.2314,0.2339,0.21,0.2103,0.2106,0.22,0,0.1584,0.1644,0.1641,0.1717,0.176,0.1784,0.1837,0.189,0.1923,0.1981,0.2001,0.2046,0.2001,0.2009,0.2056,0.2087,0.2137,0.2063,0.2133,0.2134,0.2221,0.2365,0.2059,0.2128,0.2216,0.2218,0.222,0,0.1602,0.1642,0.1713,0.1792,0.1811,0.1855,0.1935,0.1988,0.2061,0.2082,0.2126,0.2137,0.2203,0.2155,0.2254,0.2209,0.223,0.2244,0.2248,0.2313,0.2259,0.207,0.2154,0.2247,0.2245,0.2243,0.2241,0,0.162,0.1702,0.1757,0.1785,0.1862,0.1908,0.1953,0.2021,0.2074,0.2154,0.2188,0.2254,0.229,0.2345,0.2382,0.2326,0.2502,0.2424,0.2521,0.2524,0.2269,0.2247,0.252,0.252,0.252,0.2519,0.2519,0,0.1664,0.1714,0.1769,0.1804,0.1873,0.1934,0.2013,0.2053,0.2137,0.2197,0.2239,0.2303,0.2345,0.2439,0.2452,0.2573,0.2566,0.2579,0.2588,0.2296,0.2277,0.2372,0.2353,0.2523,0.2522,0.2521,0.2521,0,0.1679,0.1712,0.1785,0.1862,0.1884,0.194,0.2036,0.2096,0.2159,0.2244,0.2275,0.2375,0.2514,0.2577,0.2681,0.2675,0.2766,0.2802,0.2457,0.2429,0.2705,0.269,0.2909,0.2914,0.2918,0.2922,0.2924,0,0.1691,0.1723,0.1802,0.1831,0.1867,0.1947,0.1998,0.209,0.2147,0.2285,0.2329,0.2501,0.2631,0.285,0.2805,0.2884,0.2939,0.2713,0.258,0.2776,0.2761,0.2739,0.272,0.2239,0.2236,0.2234,0.2232,0,0.1706,0.1725,0.1766,0.1815,0.1875,0.1941,0.202,0.2074,0.2179,0.2282,0.2467,0.261,0.2748,0.273,0.2825,0.2807,0.2682,0.2677,0.2976,0.224,0.2167,0.2145,0.2142,0.2209,0.2212,0.2213,0.2215,0.2215,0.1694,0.171,0.1742,0.1792,0.1849,0.1906,0.1978,0.1988,0.2097,0.2132,0.2392,0.2466,0.2548,0.254,0.2525,0.2465,0.2647,0.2535,0.2531,0.2532,0.2491,0.2436,0.2516,0.2519,0.2523,0.2526,0.2528,0,0.168,0.1679,0.1714,0.1765,0.1793,0.1855,0.1968,0.1911,0.1939,0.1995,0.2094,0.1991,0.2049,0.2163,0.2007,0.2081,0.1891,0.206,0.1767,0.1795,0.1818,0.1727,0.1556,0.1553,0.155,0.1548,0,0,0.1649,0.1655,0.1666,0.1679,0.1724,0.1633,0.17,0.1614,0.1592,0.1534,0.1568,0.1729,0.2027,0.1684,0.1713,0.1627,0.166,0.1544,0.2322,0.1998,0.2015,0.2106,0.2005,0,0,0,0,0]},{"header":{"parameterUnit":"m.s-1","parameterCategory":2,"la1":30.2991,"la2":30.254,"lo1":-89.0895,"lo2":-89.0444,"dy":0.0017,"dx":0.0017,"nx":28,"ny":28,"refTime":"2025-03-05T03:00:00:Z","depth":"2","parameterNumber":3,"parameterNumberName":"V-component_of_CURRENTS"},"data":[0,0,0,0,0,0,0,0,0,0,0,0,0,0,0,0,0,0,0,0,0,0,0,0,0,0,0,0,0,0,0,0,0,0,0,0,0,0,0,0,0,0,0,0,0,0,0,0,0,0,0,0,0,0,0,0,0,0,0.0128,0.0129,0,0.0125,0.0125,0.0125,0.0105,0.0105,0.0105,0.0105,0.0045,0.0043,0.0042,0,0,0,0,0,0,0,0,0,0,0,0,0,0.0035,0.0037,0.0128,0.0129,0.0129,0.0125,0.0125,0.0124,0.0105,0.0105,0.0105,0.0105,0.0045,0.0043,0.0041,0,0,0,0,0,0,0,0,0,0,0,0,0,0.0054,0.0037,0.0128,0.0122,0.0122,0.0125,0.0125,0.0124,0.0105,0.0105,0.0105,0.0105,0.0046,0.0043,0.0041,0.0028,0,0,0.0034,0.0033,0,0,0,0,0,0,0,0,0.0053,0.0057,0.0123,0.0123,0.0123,0.012,0.007,0.0091,0.0105,0.0107,0.0105,0.0105,0.0067,0.0063,0.0057,0.0026,0.0023,0.0034,0.0032,0.0031,0.0031,0,0,0,0,0,0,0,0.0052,0.0056,0.0123,0.0123,0.0123,0.0092,0.0095,0.0073,0.0083,0.0107,0.0107,0.0113,0.0066,0.006,0.0056,0.0022,0.0034,0.0032,0.003,0.0029,-0.0045,-0.0046,0,0,0,0,0,0,0.0066,0.0056,0.0123,0.0123,0.0092,0.0094,0.0097,0.0117,0.0085,0.0081,0.0114,0.0113,0.0064,0.0058,0.0053,0.0037,0.0031,0.0029,0.0028,-0.0044,-0.0045,-0.0046,0,0,0,0,0,0,0.0064,0.0072,0.0123,0.0091,0.0096,0.0097,0.0119,0.0117,0.0115,0.0091,0.0086,0.0114,0.0063,0.0057,0.0025,0.0034,0.0028,0.0026,-0.0044,-0.0045,-0.0046,0.0003,0,0,0,0,0,0,0.0062,0.0072,0.0095,0.0093,0.0099,0.0127,0.0119,0.0117,0.0121,0.012,0.009,0.0084,0.0063,0.0029,0.0023,0.0031,0.0024,-0.0043,-0.0044,-0.0045,0.0002,0.0004,0.0006,0,0,0,0,0,0.0058,0.0103,0.0097,0.0105,0.013,0.0128,0.0127,0.0123,0.0121,0.012,0.0091,0.0085,0.0018,0.0026,0.0019,0.0027,-0.0043,-0.0044,-0.0045,0.0001,0.0004,0.0005,0,0,0,0,0,0,0.0071,0.0105,0.0098,0.0149,0.0135,0.0126,0.014,0.0127,0.0106,0.0099,0.0075,0.0067,0.0043,0.0022,0.0032,-0.0001,-0.0012,-0.0015,0.0025,0.0027,0.0029,0.0045,0.0022,0,0,0,0,0,0.0085,0.0129,0.0127,0.0162,0.0163,0.0147,0.0149,0.0132,0.0114,0.0106,0.0087,0.0058,0.0032,0.002,-0.0009,-0.0026,-0.0041,-0.0027,-0.0025,-0.0023,-0.0016,-0.0066,-0.0068,-0.005,-0.005,-0.005,0,0,0.009,0.0124,0.0141,0.0167,0.0161,0.0165,0.0147,0.0144,0.0142,0.0101,0.0097,0.0062,0.0026,0.0004,-0.0007,-0.0009,-0.0029,-0.0025,-0.0023,-0.0017,-0.0067,-0.0069,-0.007,-0.0051,-0.0051,-0.0051,0,0,0.0125,0.0157,0.0194,0.0193,0.0193,0.0182,0.0182,0.0164,0.0154,0.013,0.0103,0.0066,0.0037,0.001,-0.0007,-0.0016,-0.0022,-0.0017,0.0011,-0.0037,-0.0038,-0.004,-0.0022,-0.0023,-0.0012,-0.0012,-0.0012,0,0.0112,0.0184,0.0195,0.0223,0.0235,0.0194,0.0209,0.019,0.0159,0.0156,0.0132,0.0073,0.0038,0.0016,0.0011,-0.0011,-0.0015,0.0012,-0.0033,-0.0035,-0.0037,-0.002,-0.0021,-0.001,-0.001,-0.001,-0.001,0,0.0173,0.0216,0.0237,0.0267,0.0274,0.0279,0.0257,0.0249,0.0227,0.0202,0.0167,0.0102,0.0072,0.0052,0.003,0.0003,0.0016,-0.0026,-0.0031,-0.0036,-0.0017,-0.0019,-0.0006,-0.0007,-0.0008,-0.0008,0,0,0.0171,0.0256,0.0263,0.0297,0.03,0.0315,0.0313,0.0307,0.0317,0.0252,0.0252,0.0181,0.014,0.0117,0.0074,0.003,0.0013,0.0005,0.0001,0.0036,-0.0039,-0.0056,-0.006,-0.0036,-0.0037,-0.0038,-0.0003,0,0.02,0.0277,0.0312,0.0367,0.0403,0.0388,0.0401,0.0385,0.0356,0.0339,0.0252,0.0226,0.0167,0.015,0.0092,0.0026,0.0003,0.0011,-0.0051,-0.0052,-0.0058,-0.0066,-0.0058,-0.003,-0.0005,-0.0006,-0.0006,0,0.0249,0.0309,0.0371,0.0451,0.0464,0.0485,0.0518,0.0516,0.0471,0.0444,0.0383,0.0321,0.0252,0.0186,0.0083,0.0095,0.0041,-0.0015,-0.0016,-0.0054,-0.0076,-0.0033,-0.0036,-0.001,-0.0009,-0.0009,-0.0009,0,0.0274,0.0357,0.042,0.0441,0.0505,0.0539,0.0562,0.0549,0.0566,0.0506,0.0502,0.0398,0.0353,0.0244,0.013,0.0111,0.0017,-0.0027,-0.0081,-0.008,-0.0098,-0.0098,-0.0096,-0.0096,-0.0096,-0.0096,-0.0096,0,0.0312,0.0366,0.0445,0.0484,0.0577,0.059,0.066,0.0658,0.0646,0.0666,0.0557,0.0548,0.036,0.0281,0.0166,0.0046,0.0048,-0.0068,-0.0087,-0.0077,-0.0075,-0.0091,-0.0091,-0.0095,-0.0095,-0.0095,-0.0095,0,0.0329,0.0369,0.0467,0.0558,0.0596,0.0661,0.0752,0.0797,0.0764,0.0781,0.0768,0.067,0.0576,0.0413,0.0249,0.0112,-0.0013,-0.005,0.0007,-0.0009,-0.0074,-0.0072,-0.0103,-0.0104,-0.0104,-0.0105,-0.0105,0,0.0332,0.0384,0.0528,0.0604,0.0657,0.0756,0.083,0.0852,0.0894,0.0866,0.0881,0.0798,0.0775,0.054,0.0281,0.0096,0.0045,-0.0051,-0.0116,-0.0066,-0.0082,-0.0079,-0.0076,-0.009,-0.009,-0.009,-0.009,0,0.0364,0.0421,0.0522,0.0679,0.079,0.0917,0.1012,0.1061,0.1069,0.1097,0.1134,0.1122,0.0883,0.0671,0.0355,0.0199,-0.0033,-0.0061,-0.004,-0.0103,-0.0057,-0.0071,-0.0069,-0.0092,-0.0092,-0.0092,-0.0092,-0.0092,0.0397,0.0486,0.0629,0.0786,0.0923,0.107,0.1172,0.1259,0.1358,0.1417,0.1344,0.1353,0.103,0.0679,0.0341,-0.0016,0.002,-0.0122,-0.0121,-0.0119,-0.0138,-0.0098,-0.0139,-0.0139,-0.0139,-0.0139,-0.014,0,0.0446,0.0571,0.0724,0.0943,0.1126,0.1155,0.1302,0.1412,0.1555,0.162,0.1671,0.1397,0.1092,0.0747,0.023,-0.0099,-0.0144,-0.022,-0.0205,-0.02,-0.0196,-0.022,-0.0242,-0.0244,-0.0245,-0.0246,0,0,0.0497,0.0659,0.0764,0.1092,0.1238,0.1464,0.155,0.1697,0.1789,0.1896,0.1901,0.1782,0.1305,0.0894,0.0415,0.0109,0.0036,0.0036,0.0157,0.0238,0.0246,-0.0101,-0.0127,0,0,0,0,0]}],[{"header":{"parameterUnit":"m.s-1","parameterCategory":2,"la1":30.2991,"la2":30.254,"lo1":-89.0895,"lo2":-89.0444,"dy":0.0017,"dx":0.0017,"nx":28,"ny":28,"refTime":"2025-03-05T03:00:00:Z","depth":"4","parameterNumber":2,"parameterNumberName":"U-component_of_CURRENTS"},"data":[0,0,0,0,0,0,0,0,0,0,0,0,0,0,0,0,0,0,0,0,0,0,0,0,0,0,0,0,0,0,0,0,0,0,0,0,0,0,0,0,0,0,0,0,0,0,0,0,0,0,0,0,0,0,0,0,0,0,0.0175,0.0177,0,0.0371,0.0373,0.0375,0.0518,0.0519,0.0521,0.0522,0.0624,0.0626,0.0627,0,0,0,0,0,0,0,0,0,0,0,0,0,0.01,0.0099,0.0175,0.0178,0.018,0.0371,0.0373,0.0376,0.0518,0.0519,0.0521,0.0523,0.0624,0.0626,0.0627,0,0,0,0,0,0,0,0,0,0,0,0,0,0.0195,0.0099,0.0174,0.0275,0.0287,0.037,0.0374,0.0377,0.0517,0.0519,0.0522,0.0523,0.0623,0.0625,0.0627,0.0599,0,0,0.0634,0.0635,0,0,0,0,0,0,0,0,0.019,0.0198,0.0258,0.0269,0.0281,0.0424,0.0385,0.0447,0.0517,0.0427,0.0522,0.0524,0.0548,0.0557,0.0588,0.0604,0.0608,0.0634,0.0635,0.0636,0.0637,0,0,0,0,0,0,0,0.0183,0.0191,0.0251,0.0261,0.0275,0.0372,0.0386,0.0399,0.047,0.0435,0.0447,0.0471,0.0554,0.0585,0.0591,0.061,0.0634,0.0636,0.0637,0.0638,0.0742,0.0743,0,0,0,0,0,0,0.0151,0.0183,0.0244,0.0257,0.0242,0.0371,0.0387,0.0374,0.0473,0.0491,0.0469,0.0477,0.0581,0.0588,0.0595,0.0685,0.0636,0.0638,0.064,0.074,0.0742,0.0744,0,0,0,0,0,0,0.0147,0.0152,0.0237,0.0229,0.0247,0.0369,0.0355,0.0377,0.0458,0.05,0.0517,0.0533,0.0582,0.0592,0.0642,0.0685,0.0639,0.0641,0.0739,0.0741,0.0743,0.0789,0,0,0,0,0,0,0.0144,0.0149,0.0159,0.0225,0.0246,0.0329,0.0354,0.038,0.0468,0.0481,0.0558,0.0568,0.0585,0.0639,0.0644,0.0687,0.0643,0.0737,0.074,0.0742,0.0785,0.0792,0.0798,0,0,0,0,0,0.014,0.0178,0.0156,0.0167,0.0243,0.0332,0.0353,0.0446,0.0469,0.0522,0.0558,0.0568,0.0661,0.0641,0.0648,0.0692,0.0735,0.0739,0.0742,0.0782,0.0791,0.0798,0,0,0,0,0,0,0.0181,0.0197,0.0176,0.022,0.0274,0.0358,0.0427,0.0464,0.0536,0.0546,0.0577,0.059,0.0628,0.066,0.0637,0.0731,0.0703,0.0708,0.0732,0.074,0.0746,0.0793,0.0645,0,0,0,0,0,0.0172,0.0174,0.0219,0.0244,0.0277,0.0341,0.0397,0.0444,0.0505,0.0544,0.0583,0.0622,0.0638,0.0692,0.0692,0.0763,0.0777,0.0798,0.0805,0.081,0.0853,0.084,0.0849,0.0754,0.0754,0.0754,0,0,0.0196,0.0197,0.0205,0.0249,0.0293,0.0337,0.0383,0.047,0.0523,0.0533,0.062,0.0616,0.0646,0.0702,0.073,0.0752,0.0855,0.0814,0.0819,0.0859,0.0845,0.0854,0.0862,0.0757,0.0756,0.0756,0,0,0.0229,0.0237,0.0248,0.029,0.0348,0.0378,0.0405,0.0488,0.056,0.0637,0.0621,0.0648,0.0736,0.0743,0.0764,0.081,0.0843,0.0835,0.0962,0.0948,0.0956,0.0963,0.1033,0.1046,0.0892,0.0892,0.0892,0,0.0228,0.0252,0.028,0.0307,0.0357,0.039,0.0442,0.0505,0.0593,0.0662,0.0682,0.076,0.0752,0.0812,0.0844,0.0822,0.0867,0.0926,0.0956,0.0962,0.0969,0.1039,0.1052,0.0895,0.0894,0.0894,0.0894,0,0.0296,0.0299,0.0328,0.0328,0.0396,0.0451,0.0523,0.0598,0.0672,0.0733,0.0831,0.0831,0.0897,0.0894,0.0905,0.0957,0.0992,0.0915,0.0933,0.0981,0.1053,0.1066,0.0899,0.0898,0.0897,0.0896,0,0,0.0298,0.0343,0.0352,0.0365,0.0418,0.0485,0.0574,0.0685,0.077,0.0863,0.0965,0.1012,0.1029,0.1052,0.1036,0.1074,0.1138,0.1069,0.1067,0.1139,0.1209,0.1142,0.115,0.1082,0.1083,0.1085,0.1257,0,0.0318,0.0345,0.0397,0.0454,0.0481,0.0565,0.0652,0.0761,0.0862,0.0953,0.101,0.1065,0.1085,0.1113,0.115,0.1102,0.1173,0.1105,0.1156,0.116,0.109,0.116,0.109,0.1266,0.1269,0.1271,0.1273,0,0.0386,0.0379,0.0432,0.0507,0.0546,0.0613,0.0783,0.0859,0.0985,0.1079,0.117,0.1181,0.125,0.1211,0.1293,0.127,0.1278,0.1266,0.1269,0.1205,0.1115,0.1199,0.1296,0.1294,0.1293,0.1291,0.129,0,0.0386,0.0432,0.0471,0.0498,0.0581,0.0693,0.0765,0.0917,0.1026,0.113,0.121,0.1283,0.1325,0.1345,0.1378,0.1346,0.145,0.1356,0.133,0.1328,0.1315,0.1305,0.1412,0.1412,0.1411,0.1411,0.141,0,0.0386,0.0422,0.0489,0.0511,0.0632,0.071,0.0864,0.0972,0.1099,0.1197,0.1258,0.1337,0.1366,0.1427,0.1423,0.146,0.1493,0.1394,0.1362,0.1338,0.1328,0.1327,0.1315,0.1417,0.1416,0.1415,0.1414,0,0.0353,0.0392,0.0448,0.056,0.0627,0.072,0.0916,0.0999,0.1146,0.1258,0.1295,0.1422,0.1509,0.1554,0.1577,0.1527,0.1524,0.1521,0.1593,0.1553,0.1416,0.1404,0.1512,0.1511,0.151,0.151,0.1509,0,0.0336,0.0349,0.047,0.0544,0.061,0.075,0.0838,0.1009,0.1083,0.1307,0.133,0.1486,0.1546,0.1573,0.16,0.1627,0.1583,0.1595,0.1438,0.1466,0.1424,0.1414,0.1404,0.1508,0.1507,0.1507,0.1507,0,0.0296,0.0347,0.0382,0.0488,0.0617,0.0725,0.0861,0.0931,0.1102,0.1237,0.1348,0.1408,0.1508,0.1531,0.1589,0.1579,0.1574,0.1584,0.1584,0.1436,0.1461,0.1418,0.1409,0.1504,0.1504,0.1505,0.1505,0,0.0283,0.0301,0.0354,0.0461,0.0589,0.0683,0.0765,0.0865,0.0979,0.1206,0.1237,0.1381,0.1494,0.1514,0.1548,0.1558,0.1507,0.141,0.1418,0.1422,0.1305,0.1318,0.1328,0,0,0,0,0,0.0269,0.0279,0.0332,0.0454,0.0551,0.0624,0.0769,0.0836,0.0996,0.1038,0.1152,0.1231,0.1327,0.1392,0.1383,0.1508,0.151,0.1489,0.14,0.1486,0.149,0.1356,0,0,0,0,0,0,0.0282,0.03,0.0292,0.0405,0.0471,0.0579,0.0662,0.0769,0.0798,0.0961,0.1008,0.1133,0.1229,0.1317,0.135,0.1374,0.1287,0.1581,0.1578,0.1484,0.1488,0.1491,0.1354,0,0,0,0,0]},{"header":{"parameterUnit":"m.s-1","parameterCategory":2,"la1":30.2991,"la2":30.254,"lo1":-89.0895,"lo2":-89.0444,"dy":0.0017,"dx":0.0017,"nx":28,"ny":28,"refTime":"2025-03-05T03:00:00:Z","depth":"4","parameterNumber":3,"parameterNumberName":"V-component_of_CURRENTS"},"data":[0,0,0,0,0,0,0,0,0,0,0,0,0,0,0,0,0,0,0,0,0,0,0,0,0,0,0,0,0,0,0,0,0,0,0,0,0,0,0,0,0,0,0,0,0,0,0,0,0,0,0,0,0,0,0,0,0,0,0.0629,0.0628,0,0.0575,0.0575,0.0575,0.0537,0.0536,0.0536,0.0535,0.0463,0.0462,0.0461,0,0,0,0,0,0,0,0,0,0,0,0,0,0.0574,0.0576,0.0629,0.0628,0.0627,0.0575,0.0575,0.0575,0.0537,0.0536,0.0535,0.0535,0.0464,0.0462,0.0461,0,0,0,0,0,0,0,0,0,0,0,0,0,0.0572,0.0577,0.063,0.0599,0.0595,0.0575,0.0575,0.0575,0.0537,0.0536,0.0535,0.0534,0.0464,0.0462,0.0461,0.0471,0,0,0.0455,0.0454,0,0,0,0,0,0,0,0,0.0572,0.0575,0.0604,0.0601,0.0596,0.0557,0.0529,0.0537,0.0538,0.0564,0.0535,0.0534,0.0491,0.0487,0.0486,0.0468,0.0465,0.0455,0.0454,0.0453,0.0452,0,0,0,0,0,0,0,0.0572,0.0576,0.0613,0.0603,0.0598,0.0543,0.0544,0.053,0.0538,0.0562,0.0558,0.0545,0.0489,0.0488,0.0484,0.0464,0.0455,0.0453,0.0452,0.0451,0.0421,0.0421,0,0,0,0,0,0,0.0578,0.0577,0.0615,0.0611,0.0576,0.0546,0.0546,0.0575,0.0538,0.053,0.0545,0.0543,0.0492,0.0486,0.0481,0.0474,0.0453,0.0451,0.045,0.042,0.0421,0.0421,0,0,0,0,0,0,0.0578,0.0584,0.0617,0.0585,0.0585,0.0548,0.0581,0.0575,0.0552,0.0525,0.0517,0.0526,0.0491,0.0484,0.0468,0.0472,0.045,0.0449,0.042,0.042,0.0421,0.0471,0,0,0,0,0,0,0.0577,0.0585,0.0599,0.0588,0.0587,0.06,0.0581,0.0574,0.0544,0.054,0.0506,0.0499,0.0489,0.0471,0.0466,0.0469,0.0447,0.042,0.042,0.0421,0.0469,0.0473,0.0477,0,0,0,0,0,0.0576,0.0585,0.0602,0.0604,0.0613,0.0599,0.0595,0.0565,0.0544,0.054,0.0523,0.0499,0.0471,0.0471,0.0465,0.0466,0.0419,0.042,0.0421,0.0467,0.0472,0.0476,0,0,0,0,0,0,0.0553,0.0582,0.0599,0.0615,0.0611,0.0591,0.0577,0.0557,0.054,0.0533,0.0507,0.05,0.0504,0.0469,0.0469,0.0458,0.0439,0.0439,0.0477,0.0481,0.0485,0.0441,0.0446,0,0,0,0,0,0.0564,0.0598,0.0599,0.0619,0.0616,0.0599,0.0584,0.0569,0.0552,0.0542,0.0529,0.0508,0.0506,0.0479,0.0487,0.0461,0.0424,0.0457,0.0461,0.0464,0.0424,0.0417,0.0416,0.0423,0.0423,0.0423,0,0,0.0554,0.0582,0.0594,0.0618,0.0617,0.0623,0.0589,0.0571,0.057,0.0538,0.054,0.054,0.0512,0.0513,0.0505,0.0473,0.0442,0.0465,0.0468,0.0425,0.0417,0.0417,0.0416,0.0423,0.0423,0.0423,0,0,0.0563,0.0588,0.062,0.0624,0.0627,0.0622,0.0614,0.0602,0.0587,0.0579,0.0579,0.0571,0.0544,0.054,0.0526,0.0544,0.0491,0.0539,0.0488,0.0483,0.0482,0.0481,0.0429,0.0422,0.0507,0.0507,0.0507,0,0.0562,0.0607,0.0616,0.0645,0.0645,0.0624,0.0637,0.0624,0.061,0.0596,0.058,0.0558,0.0557,0.0536,0.0541,0.0553,0.0513,0.0478,0.0488,0.0486,0.0484,0.043,0.0423,0.051,0.0509,0.0509,0.0509,0,0.0584,0.0624,0.0635,0.069,0.0688,0.069,0.0679,0.0674,0.0648,0.063,0.0606,0.0594,0.0566,0.0571,0.0549,0.053,0.0496,0.0527,0.0477,0.0486,0.0429,0.042,0.0513,0.0512,0.0512,0.0511,0,0,0.0586,0.0647,0.0652,0.0695,0.0708,0.0717,0.0712,0.07,0.0687,0.065,0.0622,0.0603,0.0573,0.0552,0.0537,0.0492,0.0464,0.0473,0.0471,0.0419,0.0399,0.0382,0.037,0.0491,0.049,0.0489,0.0364,0,0.0611,0.0681,0.0692,0.0748,0.0781,0.0766,0.0767,0.075,0.0716,0.0693,0.0627,0.0617,0.0572,0.056,0.051,0.0495,0.044,0.049,0.0396,0.0391,0.0377,0.0361,0.0485,0.0357,0.0355,0.0353,0.0352,0,0.0627,0.0681,0.0742,0.0804,0.0811,0.0834,0.083,0.0827,0.0774,0.0736,0.0668,0.0631,0.0557,0.0541,0.043,0.0456,0.0413,0.0376,0.0373,0.0322,0.0358,0.0346,0.0335,0.0337,0.0338,0.0339,0.034,0,0.0637,0.0713,0.0772,0.0792,0.0847,0.0861,0.0874,0.084,0.083,0.077,0.074,0.0643,0.0606,0.0518,0.0423,0.0427,0.0298,0.0327,0.0254,0.0251,0.0282,0.0284,0.0251,0.0252,0.0252,0.0252,0.0253,0,0.0661,0.0709,0.0791,0.0827,0.0888,0.0901,0.0928,0.0912,0.0874,0.0861,0.0771,0.0724,0.0598,0.0508,0.0417,0.0285,0.0303,0.0213,0.0217,0.0305,0.0312,0.0275,0.0279,0.0247,0.0248,0.0249,0.025,0,0.067,0.0717,0.0799,0.0874,0.0907,0.0946,0.0988,0.0994,0.0945,0.0921,0.0903,0.0784,0.0661,0.0521,0.0391,0.0296,0.0184,0.0147,0.0204,0.022,0.0128,0.0136,0.0025,0.0024,0.0022,0.0021,0.002,0,0.0676,0.0728,0.0846,0.0893,0.0937,0.0999,0.104,0.1034,0.1029,0.0954,0.0939,0.0819,0.0728,0.05,0.0365,0.0163,0.0154,0.0067,0.0105,0.0088,0.0104,0.0115,0.0125,0.0018,0.0018,0.0017,0.0017,0,0.0688,0.0737,0.081,0.0922,0.0994,0.1067,0.1114,0.1119,0.1093,0.1056,0.0962,0.0824,0.0682,0.0503,0.0346,0.0213,0.0102,0.0052,0.0054,0.009,0.0078,0.0098,0.0109,0.0012,0.0013,0.0013,0.0014,0,0.0689,0.0741,0.084,0.0938,0.1039,0.1106,0.1132,0.1133,0.1131,0.1042,0.102,0.0855,0.0759,0.0529,0.0388,0.0242,0.0206,0.0151,0.0147,0.0151,0.0231,0.0238,0.0197,0,0,0,0,0,0.0685,0.0744,0.084,0.0954,0.106,0.1119,0.1172,0.1176,0.1164,0.1109,0.1057,0.0926,0.0682,0.0576,0.0429,0.0363,0.0182,0.0182,0.0118,-0.0015,-0.0009,0.0063,0,0,0,0,0,0,0.0673,0.0759,0.0831,0.0956,0.1041,0.115,0.1194,0.1182,0.1138,0.1096,0.0982,0.0885,0.0668,0.0784,0.0431,0.0382,0.0315,0.0066,0.0062,-0.0018,-0.0013,-0.0008,0.0068,0,0,0,0,0]}]]